Flag for U.S.A. Weather past 2 weeks in Birmingham, Alabama, U.S.A.

Now
76 °F

Passing clouds.


Feels Like: 76 °F
Forecast: 72 / 86 °F
Wind: No wind

Location: Birmingham International Airport

Current Time: Jul 23, 2014 at 12:48:28 AM

Latest Report: Jul 22, 2014 at 11:53 PM


Visibility: 10 mi

Pressure: 30.07 "Hg

Humidity: 85%

Dew point: 71 °F

Location of BirminghamLocation

Historic Weather in Birmingham — Graph

°F

Birmingham temperature yesterday

Maximum temperature yesterday: 84 °F (at 6:53 PM)
Minimum temperature yesterday: 74 °F (at 3:53 AM)
Average temperature yesterday: 78 °F

Past Weeks' High & Low Weather Summary

 TemperatureHumidityPressure
High94 °F (Jul 13, 1:53 PM)97% (Jul 15, 3:53 AM)30.18 "Hg (Jul 15, 3:53 AM)
Low61 °F (Jul 17, 2:53 AM)33% (Jul 16, 2:53 PM)29.85 "Hg (Jul 15, 4:53 PM)
Average78 °F69%30.03 "Hg
* Reported Jul 7 10:53 PM — Jul 22 10:53 PM, Birmingham, Weather by CustomWeather, © 2014

Note: Actual official high and low records may vary slightly from our data, if they occured in-between our weather recording intervals... More about our weather records

Advertising

Birmingham weather history for previous 24 hours

 ConditionsComfort  
Time TempWeatherWind HumidityBarometerVisibility
10:53 PM
Jul 22
78 °FPassing clouds.No wind79%30.09 "Hg10 mi
9:53 PM79 °FPassing clouds.No wind74%30.09 "Hg10 mi
8:53 PM80 °FScattered clouds.No wind71%30.07 "Hg10 mi
7:53 PM82 °FScattered clouds.No wind65%30.06 "Hg10 mi
6:53 PM84 °FBroken clouds.5 mph61%30.04 "Hg10 mi
11:53 AM81 °FPartly sunny.7 mph69%30.10 "Hg10 mi
10:53 AM81 °FBroken clouds.9 mph69%30.11 "Hg10 mi
10:01 AM79 °FMore clouds than sun.10 mph79%30.14 "Hg10 mi
8:53 AM77 °FPartly sunny.9 mph82%30.12 "Hg10 mi
7:53 AM76 °FMostly cloudy.7 mph85%30.11 "Hg7 mi
6:53 AM74 °FLow clouds.5 mph91%30.09 "Hg10 mi
5:58 AM75 °FMostly cloudy.8 mph89%30.10 "Hg10 mi
4:53 AM74 °FOvercast.3 mph91%30.05 "Hg10 mi
3:53 AM74 °FMostly cloudy.No wind88%30.03 "Hg10 mi
2:53 AM75 °FPassing clouds.3 mph85%30.03 "Hg10 mi
1:53 AM75 °FPassing clouds.5 mph85%30.04 "Hg10 mi
12:53 AM76 °FPartly cloudy.No wind85%30.05 "Hg10 mi
Weather by CustomWeather, © 2014

See weather overviewHow to use our weather pages